This demonstration page uses our WeatherBlox Daily Observations layout. Learn more.

Left ArrowRight Arrow

Hourly Observations for January 1, 2017

Temp ( °F °C ) Dew Point ( °F °C ) Humidity (%) Winds ( mph kmh ) Pressure ( in mb ) Visibility ( mi km ) Precip ( " mm )
12:15 am 00:15 Clear 27 -3 23 -5 86 86 N N/A 30.03 1017 10 16 N/A
12:34 am 00:34 Clear 27 -3 23 -5 86 86 N N/A 30.06 1018 10 16 N/A
12:55 am 00:55 Clear 25 -4 23 -5 93 93 N N/A 30.06 1018 10 16 N/A
1:14 am 01:14 Clear 27 -3 23 -5 86 86 N N/A 30.06 1018 10 16 N/A
1:35 am 01:35 Clear 23 -5 21 -6 93 93 N N/A 30.06 1018 10 16 N/A
1:54 am 01:54 Clear 25 -4 23 -5 93 93 N N/A 30.06 1018 10 16 N/A
2:14 am 02:14 Clear 25 -4 23 -5 93 93 N N/A 30.06 1018 10 16 N/A
2:35 am 02:35 Clear 25 -4 23 -5 93 93 N N/A 30.09 1019 10 16 N/A
2:54 am 02:54 Clear 25 -4 23 -5 93 93 N N/A 30.09 1019 10 16 N/A
3:15 am 03:15 Clear 23 -5 21 -6 93 93 N N/A 30.09 1019 10 16 N/A
3:34 am 03:34 Clear 23 -5 23 -5 100 100 N N/A 30.09 1019 7 11 N/A
3:54 am 03:54 Clear 23 -5 21 -6 93 93 N N/A 30.15 1021 10 16 N/A
4:15 am 04:15 Clear 23 -5 21 -6 93 93 N N/A 30.15 1021 7 11 N/A
4:34 am 04:34 Clear 21 -6 19 -7 93 93 N N/A 30.15 1021 7 11 N/A
4:54 am 04:54 Clear 23 -5 21 -6 93 93 N N/A 30.15 1021 5 8 N/A
5:15 am 05:15 Clear 23 -5 21 -6 93 93 N N/A 30.15 1021 4 6 N/A
5:34 am 05:34 Clear 23 -5 21 -6 93 93 N N/A 30.18 1022 3 5 N/A
5:55 am 05:55 Clear 23 -5 21 -6 93 93 N N/A 30.18 1022 4 6 N/A
6:14 am 06:14 Clear 19 -7 19 -7 100 100 N N/A 30.18 1022 7 11 N/A
6:34 am 06:34 Clear 21 -6 19 -7 93 93 N N/A 30.18 1022 7 11 N/A
6:55 am 06:55 Clear 21 -6 19 -7 93 93 N N/A 30.18 1022 7 11 N/A
7:14 am 07:14 Clear 19 -7 18 -8 93 93 N N/A 30.18 1022 7 11 N/A
7:35 am 07:35 Clear 21 -6 19 -7 93 93 N N/A 30.18 1022 7 11 N/A
7:54 am 07:54 Clear 21 -6 19 -7 93 93 N N/A 30.18 1022 5 8 N/A
8:15 am 08:15 Sunny 21 -6 19 -7 93 93 E 3 6 30.18 1022 5 8 N/A
8:34 am 08:34 Sunny 21 -6 19 -7 93 93 NNE 7 11 30.18 1022 7 11 N/A
8:55 am 08:55 Sunny 23 -5 23 -5 100 100 NE 3 6 30.21 1023 7 11 N/A
9:14 am 09:14 Sunny 25 -4 25 -4 100 100 N N/A 30.18 1022 7 11 N/A
9:34 am 09:34 Sunny 28 -2 27 -3 93 93 E 5 7 30.18 1022 10 16 N/A
9:55 am 09:55 Sunny 28 -2 27 -3 93 93 E 3 6 30.21 1023 10 16 N/A
10:14 am 10:14 Sunny 32 undefined 27 -3 80 80 ESE 6 9 30.21 1023 10 16 N/A
10:35 am 10:35 Sunny 34 1 28 -2 81 81 SE 6 9 30.21 1023 10 16 N/A
11:15 am 11:15 Sunny 37 3 30 -1 75 75 SE 6 9 30.21 1023 10 16 N/A
11:34 am 11:34 Sunny 37 3 30 -1 75 75 SSE 6 9 30.21 1023 10 16 N/A
11:54 am 11:54 Sunny 39 4 30 -1 70 70 S 6 9 30.21 1023 10 16 N/A
12:15 pm 12:15 Sunny 39 4 32 undefined 75 75 SSE 6 9 30.21 1023 10 16 N/A
12:34 pm 12:34 Sunny 41 5 32 undefined 70 70 N N/A 30.15 1021 10 16 N/A
12:55 pm 12:55 Sunny 41 5 32 undefined 70 70 ESE 5 7 30.15 1021 10 16 N/A
1:14 pm 13:14 Sunny 41 5 32 undefined 70 70 SSE 5 7 30.15 1021 10 16 N/A
1:35 pm 13:35 Sunny 43 6 32 undefined 66 66 ESE 5 7 30.12 1020 10 16 N/A
1:54 pm 13:54 Sunny 45 7 32 undefined 61 61 E 7 11 30.12 1020 10 16 N/A
2:15 pm 14:15 Sunny 45 7 32 undefined 61 61 E 6 9 30.12 1020 10 16 N/A
2:34 pm 14:34 Sunny 45 7 32 undefined 61 61 E 5 7 30.12 1020 10 16 N/A
2:55 pm 14:55 Sunny 45 7 32 undefined 61 61 ESE 7 11 30.12 1020 10 16 N/A
3:15 pm 15:15 Sunny 45 7 32 undefined 61 61 N N/A 30.12 1020 10 16 N/A
3:34 pm 15:34 Sunny 45 7 32 undefined 61 61 N N/A 30.12 1020 10 16 N/A
3:55 pm 15:55 Sunny 43 6 32 undefined 66 66 SE 5 7 30.15 1021 10 16 N/A
4:14 pm 16:14 Sunny 41 5 34 1 76 76 E 3 6 30.12 1020 10 16 N/A
4:34 pm 16:34 Sunny 41 5 34 1 76 76 E 3 6 30.15 1021 10 16 N/A
4:55 pm 16:55 Sunny 39 4 32 undefined 75 75 ENE 5 7 30.15 1021 10 16 N/A
5:14 pm 17:14 Sunny 37 3 32 undefined 81 81 ENE 7 11 30.15 1021 10 16 N/A
5:35 pm 17:35 Clear 36 2 30 -1 81 81 E 5 7 30.18 1022 10 16 N/A
5:54 pm 17:54 Clear 34 1 30 -1 87 87 E 5 7 30.18 1022 10 16 N/A
6:14 pm 18:14 Clear 36 2 32 undefined 87 87 E 5 7 30.18 1022 10 16 N/A
6:35 pm 18:35 Clear 34 1 30 -1 87 87 ESE 6 9 30.18 1022 10 16 N/A
6:54 pm 18:54 Clear 36 2 30 -1 81 81 E 5 7 30.18 1022 10 16 N/A
7:15 pm 19:15 Clear 34 1 30 -1 87 87 E 3 6 30.18 1022 10 16 N/A
7:34 pm 19:34 Clear 32 undefined 28 -2 87 87 E 7 11 30.18 1022 10 16 N/A
7:54 pm 19:54 Clear 34 1 30 -1 87 87 ENE 5 7 30.18 1022 10 16 N/A
8:15 pm 20:15 Clear 32 undefined 30 -1 93 93 E 5 7 30.18 1022 10 16 N/A
8:34 pm 20:34 Partly Cloudy 32 undefined 30 -1 93 93 N N/A 30.18 1022 10 16 N/A
8:55 pm 20:55 Cloudy 34 1 32 undefined 93 93 ENE 7 11 30.18 1022 10 16 N/A
9:14 pm 21:14 Cloudy 34 1 32 undefined 93 93 E 7 11 30.15 1021 10 16 N/A
9:34 pm 21:34 Cloudy 36 2 32 undefined 87 87 E 5 7 30.15 1021 10 16 N/A
9:55 pm 21:55 Cloudy 36 2 32 undefined 87 87 ENE 3 6 30.15 1021 10 16 N/A
10:14 pm 22:14 Cloudy 36 2 32 undefined 87 87 N N/A 30.15 1021 10 16 N/A
10:35 pm 22:35 Cloudy 36 2 32 undefined 87 87 NNE 5 7 30.18 1022 10 16 N/A
10:54 pm 22:54 Cloudy 36 2 32 undefined 87 87 ENE 6 9 30.15 1021 10 16 N/A
11:14 pm 23:14 Cloudy 37 3 32 undefined 81 81 ENE 6 9 30.15 1021 10 16 N/A
11:35 pm 23:35 Cloudy 37 3 34 1 87 87 E 5 7 30.15 1021 10 16 N/A
11:54 pm 23:54 Cloudy 37 3 34 1 87 87 N N/A 30.15 1021 10 16 N/A

Powered by AerisWeather